Archiv-/Tagesdaten

--Timestamp---	Temp	Chill	HIndex	Humid	Dewpt	 Wind 	HiWind	WindDir	Rain 	Barom	Solar	 ET  	 UV 
--------------	----	-----	------	-----	-----	------	------	-------	-----	-----	-----	-----	----
20110730 00:00	14.7	14.7	14.7	92	13.4	0	3	225	0.0	1015.2	0	0.000	0.0
20110730 00:05	14.7	14.7	14.7	92	13.4	3	6	225	0.2	1015.0	0	0.000	0.0
20110730 00:10	14.6	14.6	14.6	92	13.3	3	6	225	0.0	1015.0	0	0.000	0.0
20110730 00:15	14.6	14.6	14.6	92	13.3	2	5	225	0.0	1015.0	0	0.000	0.0
20110730 00:20	14.6	14.6	14.6	92	13.3	0	5	225	0.0	1015.0	0	0.000	0.0
20110730 00:25	14.6	14.6	14.6	92	13.3	0	3	225	0.0	1015.0	0	0.000	0.0
20110730 00:30	14.6	14.6	14.6	92	13.3	2	6	225	0.0	1014.9	0	0.000	0.0
20110730 00:35	14.6	14.6	14.6	91	13.1	5	6	225	0.0	1014.9	0	0.000	0.0
20110730 00:40	14.6	14.6	14.6	91	13.1	3	6	225	0.0	1014.9	0	0.000	0.0
20110730 00:45	14.6	14.6	14.6	91	13.1	3	6	225	0.0	1014.8	0	0.000	0.0
20110730 00:50	14.5	14.5	14.5	91	13.0	5	8	225	0.0	1014.8	0	0.000	0.0
20110730 00:55	14.5	14.5	14.5	91	13.0	3	6	225	0.0	1014.8	0	0.000	0.0
20110730 01:00	14.6	14.6	14.6	91	13.1	3	6	225	0.0	1014.8	0	0.000	0.0
20110730 01:05	14.6	14.6	14.6	91	13.1	3	6	225	0.0	1014.7	0	0.000	0.0
20110730 01:10	14.6	14.6	14.6	91	13.1	3	8	225	0.0	1014.7	0	0.000	0.0
20110730 01:15	14.6	14.6	14.6	91	13.1	2	6	225	0.0	1014.7	0	0.000	0.0
20110730 01:20	14.6	14.6	14.6	91	13.2	0	5	225	0.0	1014.7	0	0.000	0.0
20110730 01:25	14.6	14.6	14.6	91	13.2	0	3	225	0.0	1014.6	0	0.000	0.0
20110730 01:30	14.6	14.6	14.6	91	13.2	0	3	225	0.0	1014.5	0	0.000	0.0
20110730 01:35	14.7	14.7	14.7	91	13.2	2	5	225	0.0	1014.5	0	0.000	0.0
20110730 01:40	14.6	14.6	14.6	91	13.2	0	5	225	0.0	1014.4	0	0.000	0.0
20110730 01:45	14.6	14.6	14.6	92	13.3	3	6	225	0.0	1014.4	0	0.000	0.0
20110730 01:50	14.6	14.6	14.6	91	13.2	2	6	225	0.0	1014.4	0	0.000	0.0
20110730 01:55	14.6	14.6	14.6	92	13.3	0	3	225	0.0	1014.3	0	0.000	0.0
20110730 02:00	14.6	14.6	14.6	92	13.3	2	5	225	0.0	1014.3	0	0.000	0.0
20110730 02:05	14.6	14.6	14.6	91	13.2	0	3	225	0.0	1015.1	0	0.000	0.0
20110730 02:10	14.6	14.6	14.6	91	13.1	0	0	-100000	0.0	1015.1	0	0.000	0.0
20110730 02:15	14.6	14.6	14.6	92	13.3	0	2	225	0.0	1015.0	0	0.000	0.0
20110730 02:20	14.6	14.6	14.6	91	13.1	0	5	225	0.0	1015.0	0	0.000	0.0
20110730 02:25	14.5	14.5	14.5	91	13.0	3	6	225	0.0	1015.0	0	0.000	0.0
20110730 02:30	14.4	14.4	14.4	91	13.0	5	8	225	0.0	1014.9	0	0.000	0.0
20110730 02:35	14.5	14.5	14.5	91	13.0	5	10	270	0.0	1015.0	0	0.000	0.0
20110730 02:40	14.5	14.5	14.5	91	13.0	5	11	270	0.0	1014.9	0	0.000	0.0
20110730 02:45	14.5	14.5	14.5	91	13.0	5	8	270	0.0	1014.9	0	0.000	0.0
20110730 02:50	14.5	14.5	14.5	91	13.0	5	8	270	0.0	1014.9	0	0.000	0.0
20110730 02:55	14.5	14.5	14.5	91	13.0	6	10	270	0.0	1014.8	0	0.000	0.0
20110730 03:00	14.5	14.5	14.5	91	13.0	6	10	270	0.0	1014.8	0	0.000	0.0
20110730 03:05	14.5	14.5	14.5	91	13.0	6	11	270	0.0	1014.8	0	0.000	0.0
20110730 03:10	14.5	14.5	14.5	91	13.0	6	10	270	0.0	1014.8	0	0.000	0.0
20110730 03:15	14.6	14.6	14.6	91	13.1	6	11	270	0.0	1014.8	0	0.000	0.0
20110730 03:20	14.6	14.6	14.6	91	13.1	6	14	292	0.0	1014.8	0	0.000	0.0
20110730 03:25	14.6	14.6	14.6	91	13.1	6	11	270	0.0	1014.7	0	0.000	0.0
20110730 03:30	14.6	14.6	14.6	91	13.1	6	11	292	0.0	1014.7	0	0.000	0.0
20110730 03:35	14.5	14.5	14.5	91	13.0	8	14	292	0.0	1014.7	0	0.000	0.0
20110730 03:40	14.4	14.4	14.4	90	12.8	8	16	292	0.0	1014.6	0	0.000	0.0
20110730 03:45	14.4	14.4	14.4	90	12.8	8	16	292	0.0	1014.6	0	0.000	0.0
20110730 03:50	14.4	14.4	14.4	91	12.9	8	14	292	0.0	1014.6	0	0.000	0.0
20110730 03:55	14.3	14.3	14.3	91	12.9	8	11	292	0.0	1014.6	0	0.000	0.0
20110730 04:00	14.3	14.3	14.3	90	12.7	8	16	270	0.0	1014.6	0	0.025	0.0
20110730 04:05	14.2	14.2	14.2	91	12.8	6	10	292	0.0	1014.2	0	0.000	0.0
20110730 04:10	14.2	14.2	14.2	91	12.8	6	11	292	0.0	1014.1	0	0.000	0.0
20110730 04:15	14.2	14.2	14.2	91	12.7	6	13	292	0.0	1014.1	0	0.000	0.0
20110730 04:20	14.1	14.1	14.1	91	12.7	5	11	292	0.0	1014.1	0	0.000	0.0
20110730 04:25	14.1	14.1	14.1	91	12.7	5	10	292	0.0	1014.3	0	0.000	0.0
20110730 04:30	14.1	14.1	14.1	91	12.6	5	10	315	0.0	1014.3	0	0.000	0.0
20110730 04:35	14.0	14.0	14.0	91	12.6	3	8	292	0.0	1014.2	0	0.000	0.0
20110730 04:40	13.9	13.9	13.9	91	12.5	5	8	292	0.0	1014.2	0	0.000	0.0
20110730 04:45	13.9	13.9	13.9	91	12.5	5	10	292	0.0	1014.2	0	0.000	0.0
20110730 04:50	13.9	13.9	13.9	92	12.6	3	6	292	0.0	1014.2	0	0.000	0.0
20110730 04:55	13.9	13.9	13.9	92	12.6	2	6	292	0.0	1014.2	0	0.000	0.0
20110730 05:00	13.9	13.9	13.9	92	12.6	3	10	292	0.0	1014.2	0	0.000	0.0
20110730 05:05	13.9	13.9	13.9	92	12.6	3	8	315	0.0	1014.0	0	0.000	0.0
20110730 05:10	13.9	13.9	13.9	92	12.7	2	5	315	0.0	1014.0	0	0.000	0.0
20110730 05:15	13.9	13.9	13.9	92	12.7	5	8	315	0.0	1014.1	0	0.000	0.0
20110730 05:20	13.9	13.9	13.9	92	12.7	3	6	292	0.0	1014.0	0	0.000	0.0
20110730 05:25	13.9	13.9	13.9	92	12.6	5	8	292	0.0	1014.0	0	0.000	0.0
20110730 05:30	13.9	13.9	13.9	92	12.6	3	8	292	0.0	1014.0	1792	0.000	0.0
20110730 05:35	13.8	13.8	13.8	92	12.6	5	10	292	0.0	1014.1	0	0.000	0.0
20110730 05:40	13.8	13.8	13.8	92	12.6	6	10	292	0.0	1014.1	0	0.000	0.0
20110730 05:45	13.8	13.8	13.8	92	12.6	5	8	292	0.0	1014.1	0	0.000	0.0
20110730 05:50	13.9	13.9	13.9	92	12.6	5	10	292	0.0	1014.1	0	0.000	0.0
20110730 05:55	13.9	13.9	13.9	92	12.7	6	11	292	0.0	1014.1	0	0.000	0.0
20110730 06:00	13.9	13.9	13.9	92	12.7	6	11	292	0.0	1014.1	0	0.000	0.0
20110730 06:05	13.9	13.9	13.9	92	12.7	6	18	315	0.0	1014.0	0	0.000	0.0
20110730 06:10	13.9	13.9	13.9	92	12.6	6	16	292	0.0	1014.0	0	0.000	0.0
20110730 06:15	13.8	13.8	13.8	92	12.6	6	11	292	0.0	1014.0	0	0.000	0.0
20110730 06:20	13.8	13.8	13.8	92	12.5	8	14	315	0.0	1014.0	5	0.000	0.0
20110730 06:25	13.8	13.8	13.8	92	12.5	6	18	292	0.0	1014.0	6	0.000	0.0
20110730 06:30	13.8	13.8	13.8	92	12.5	6	14	315	0.0	1014.1	7	0.000	0.0
20110730 06:35	13.7	13.7	13.7	91	12.3	8	16	315	0.0	1014.1	9	0.000	0.0
20110730 06:40	13.7	13.7	13.7	91	12.3	5	10	315	0.0	1014.1	11	0.000	0.0
20110730 06:45	13.7	13.7	13.7	91	12.3	6	14	292	0.0	1014.2	10	0.000	0.0
20110730 06:50	13.7	13.7	13.7	91	12.2	6	11	315	0.0	1014.2	17	0.000	0.0
20110730 06:55	13.7	13.7	13.7	91	12.2	6	10	315	0.0	1014.1	28	0.000	0.0
20110730 07:00	13.6	13.6	13.6	91	12.2	6	14	315	0.0	1014.2	26	0.025	0.0
20110730 07:05	13.6	13.6	13.6	91	12.2	5	8	315	0.0	1014.3	17	0.000	0.0
20110730 07:10	13.6	13.6	13.6	91	12.2	8	16	315	0.0	1014.4	18	0.000	0.0
20110730 07:15	13.6	13.6	13.6	91	12.1	6	16	315	0.0	1014.5	21	0.000	0.0
20110730 07:20	13.5	13.5	13.5	90	11.9	5	8	315	0.0	1014.5	25	0.000	0.0
20110730 07:25	13.5	13.5	13.5	90	11.9	6	14	315	0.0	1014.6	27	0.000	0.0
20110730 07:30	13.5	13.5	13.5	90	11.9	6	13	292	0.0	1014.7	27	0.000	0.0
20110730 07:35	13.4	13.4	13.4	90	11.8	10	18	315	0.0	1014.7	35	0.000	0.0
20110730 07:40	13.3	13.3	13.3	89	11.6	10	16	292	0.0	1014.6	24	0.000	0.0
20110730 07:45	13.3	13.3	13.3	89	11.5	10	18	315	0.0	1014.6	25	0.000	0.0
20110730 07:50	13.1	13.1	13.1	87	11.0	10	18	315	0.0	1014.7	32	0.000	0.0
20110730 07:55	13.1	13.1	13.1	87	10.9	8	16	292	0.0	1014.7	38	0.000	0.0
20110730 08:00	13.1	13.1	13.1	87	10.9	8	19	315	0.0	1014.7	41	0.025	0.0
20110730 08:05	13.1	13.1	13.1	87	11.0	10	19	315	0.0	1014.8	61	0.000	0.0
20110730 08:10	13.1	13.1	13.1	87	11.0	8	16	315	0.0	1014.8	57	0.000	0.0
20110730 08:15	13.2	13.2	13.2	87	11.0	5	10	292	0.0	1014.8	90	0.000	0.4
20110730 08:20	13.2	13.2	13.2	87	11.0	8	18	315	0.0	1014.8	104	0.000	0.7
20110730 08:25	13.2	13.2	13.2	87	11.1	5	14	315	0.0	1014.8	89	0.000	0.5
20110730 08:30	13.2	13.2	13.2	86	10.9	3	18	315	0.0	1014.8	61	0.000	0.0
20110730 08:35	13.2	13.2	13.2	86	10.9	3	14	315	0.0	1014.8	46	0.000	0.0
20110730 08:40	13.2	13.2	13.2	86	10.9	2	6	315	0.0	1014.8	54	0.000	0.0
20110730 08:45	13.2	13.2	13.2	87	11.0	3	6	315	0.0	1014.8	54	0.000	0.0
20110730 08:50	13.2	13.2	13.2	87	11.0	5	10	315	0.0	1014.8	88	0.000	0.7
20110730 08:55	13.2	13.2	13.2	87	11.1	5	16	315	0.0	1014.7	131	0.000	1.0
20110730 09:00	13.3	13.3	13.3	86	11.0	6	14	315	0.0	1014.7	140	0.051	1.2
20110730 09:05	13.3	13.3	13.3	86	11.0	8	18	315	0.0	1014.7	293	0.000	1.7
20110730 09:10	13.6	13.6	13.6	86	11.3	6	13	315	0.0	1014.6	331	0.000	1.7
20110730 09:15	13.8	13.8	13.8	84	11.1	5	13	315	0.0	1014.5	210	0.000	1.2
20110730 09:20	13.8	13.8	13.8	83	11.0	6	13	315	0.0	1014.6	122	0.000	0.9
20110730 09:25	13.8	13.8	13.8	82	10.8	6	14	292	0.0	1014.6	106	0.000	0.9
20110730 09:30	13.7	13.7	13.7	82	10.6	8	16	292	0.0	1014.7	83	0.000	0.7
20110730 09:35	13.6	13.6	13.6	81	10.4	10	18	315	0.0	1014.7	74	0.000	0.6
20110730 09:40	13.4	13.4	13.4	80	10.1	11	21	315	0.0	1014.8	69	0.000	0.6
20110730 09:45	13.3	13.3	13.3	81	10.1	8	16	315	0.0	1014.8	87	0.000	0.8
20110730 09:50	13.4	13.4	13.4	82	10.4	6	14	315	0.0	1014.9	149	0.000	1.3
20110730 09:55	13.4	13.4	13.4	82	10.4	8	14	292	0.0	1014.8	133	0.000	1.1
20110730 10:00	13.5	13.5	13.5	83	10.7	6	14	270	0.0	1014.8	110	0.102	0.9
20110730 10:05	13.6	13.6	13.6	83	10.7	6	19	315	0.0	1014.9	186	0.000	1.7
20110730 10:10	13.7	13.7	13.7	82	10.6	10	23	315	0.0	1014.8	295	0.000	2.8
20110730 10:15	13.8	13.8	13.8	79	10.2	10	23	315	0.0	1014.8	338	0.000	3.4
20110730 10:20	14.1	14.1	14.1	79	10.5	11	19	292	0.0	1014.8	567	0.000	4.4
20110730 10:25	14.4	14.4	14.4	77	10.4	11	19	292	0.0	1014.8	617	0.000	4.8
20110730 10:30	14.8	14.8	14.8	78	11.0	8	16	315	0.0	1014.6	646	0.000	5.2
20110730 10:35	15.0	15.0	15.0	76	10.8	8	16	270	0.0	1014.6	635	0.000	5.4
20110730 10:40	15.2	15.2	15.2	74	10.6	13	21	270	0.0	1014.6	635	0.000	5.7
20110730 10:45	15.3	15.3	15.3	75	10.9	8	18	292	0.0	1014.5	549	0.000	5.0
20110730 10:50	15.6	15.6	15.6	72	10.5	11	23	270	0.0	1014.6	655	0.000	4.7
20110730 10:55	15.6	15.6	15.6	71	10.3	13	21	315	0.0	1014.5	368	0.000	3.2
20110730 11:00	15.4	15.4	15.4	72	10.4	11	19	292	0.0	1014.6	259	0.279	2.6
20110730 11:05	15.3	15.3	15.3	73	10.5	10	18	270	0.0	1014.5	309	0.000	3.1
20110730 11:10	15.3	15.3	15.3	73	10.5	13	21	270	0.0	1014.5	401	0.000	3.8
20110730 11:15	15.5	15.5	15.5	72	10.5	10	24	292	0.0	1014.5	473	0.000	4.9
20110730 11:20	15.6	15.6	15.6	72	10.6	11	24	292	0.0	1014.5	354	0.000	4.2
20110730 11:25	15.8	15.8	15.8	71	10.5	14	24	270	0.0	1014.4	409	0.000	4.7
20110730 11:30	15.9	15.9	15.9	70	10.5	14	23	292	0.0	1014.5	406	0.000	4.6
20110730 11:35	16.1	16.1	16.1	71	10.8	13	21	292	0.0	1014.5	448	0.000	4.8
20110730 11:40	16.2	16.2	16.2	69	10.5	14	26	292	0.0	1014.5	463	0.000	5.3
20110730 11:45	16.2	16.2	16.2	68	10.3	18	26	292	0.0	1014.5	396	0.000	5.1
20110730 11:50	16.3	16.3	16.3	70	10.8	13	24	292	0.0	1014.5	437	0.000	4.9
20110730 11:55	16.6	16.6	16.6	69	10.8	13	23	292	0.0	1014.3	436	0.000	5.1
20110730 12:00	16.7	16.7	16.7	68	10.7	13	23	292	0.0	1014.3	407	0.305	4.0
20110730 12:05	16.6	16.6	16.6	68	10.7	10	18	292	0.0	1014.4	403	0.000	4.0
20110730 12:10	16.7	16.7	16.7	69	10.9	13	19	270	0.0	1014.3	429	0.000	4.4
20110730 12:15	16.9	16.9	16.9	67	10.7	14	24	270	0.0	1014.4	533	0.000	5.2
20110730 12:20	17.1	17.1	17.1	66	10.7	13	23	292	0.0	1014.4	392	0.000	4.0
20110730 12:25	17.0	17.0	17.0	66	10.6	14	24	315	0.0	1014.4	310	0.000	3.2
20110730 12:30	16.8	16.8	16.8	66	10.4	11	21	292	0.0	1014.5	223	0.000	2.4
20110730 12:35	16.7	16.7	16.7	66	10.3	14	24	292	0.0	1014.4	226	0.000	2.6
20110730 12:40	16.6	16.6	16.6	67	10.4	14	24	292	0.0	1014.4	288	0.000	3.2
20110730 12:45	16.6	16.6	16.6	67	10.4	11	23	292	0.0	1014.4	228	0.000	2.6
20110730 12:50	16.4	16.4	16.4	67	10.3	14	21	270	0.0	1014.5	263	0.000	3.0
20110730 12:55	16.6	16.6	16.6	68	10.6	11	23	270	0.0	1014.4	287	0.000	3.3
20110730 13:00	16.6	16.6	16.6	67	10.4	14	26	270	0.0	1014.5	295	0.229	3.3
20110730 13:05	16.6	16.6	16.6	69	10.8	11	26	292	0.0	1014.5	309	0.000	3.4
20110730 13:10	16.6	16.6	16.6	68	10.6	14	24	270	0.0	1014.5	216	0.000	2.5
20110730 13:15	16.4	16.4	16.4	69	10.7	14	26	270	0.0	1014.5	182	0.000	2.1
20110730 13:20	16.3	16.3	16.3	70	10.8	11	21	270	0.0	1014.5	227	0.000	2.5
20110730 13:25	16.4	16.4	16.4	70	10.9	14	24	248	0.0	1014.4	262	0.000	2.7
20110730 13:30	16.4	16.4	16.4	70	11.0	11	21	248	0.0	1014.4	-100000	0.000	2.0
20110730 13:35	16.4	16.4	16.4	70	11.0	11	23	270	0.0	1014.4	162	0.000	1.9
20110730 13:40	16.3	16.3	16.3	68	10.4	13	23	292	0.0	1014.6	149	0.000	1.6
20110730 13:45	16.2	16.2	16.2	71	11.0	10	18	292	0.0	1014.6	99	0.000	1.1
20110730 13:50	16.1	16.1	16.1	73	11.3	11	18	270	0.0	1014.6	85	0.000	1.0
20110730 13:55	16.0	16.0	16.0	72	11.0	10	19	270	0.0	1014.6	161	0.000	1.9
20110730 14:00	16.1	16.1	16.1	69	10.4	14	24	270	0.0	1014.7	241	0.152	2.4
20110730 14:05	16.2	16.2	16.2	69	10.5	13	21	270	0.0	1014.7	212	0.000	2.3
20110730 14:10	16.3	16.3	16.3	69	10.6	14	23	270	0.0	1014.7	236	0.000	2.6
20110730 14:15	16.3	16.3	16.3	69	10.6	11	18	292	0.0	1014.7	235	0.000	2.5
20110730 14:20	16.4	16.4	16.4	71	11.2	11	19	270	0.0	1014.5	189	0.000	2.1
20110730 14:25	16.4	16.4	16.4	72	11.3	11	21	270	0.0	1014.5	182	0.000	2.1
20110730 14:30	16.3	16.3	16.3	71	11.0	16	24	270	0.0	1014.7	216	0.000	2.2
20110730 14:35	16.3	16.3	16.3	73	11.4	8	18	270	0.0	1014.7	150	0.000	1.5
20110730 14:40	16.2	16.2	16.2	73	11.4	13	21	248	0.0	1014.7	122	0.000	1.3
20110730 14:45	16.1	16.1	16.1	74	11.5	10	21	270	0.0	1014.7	158	0.000	1.9
20110730 14:50	16.1	16.1	16.1	74	11.4	11	21	270	0.0	1014.7	123	0.000	1.4
20110730 14:55	16.0	16.0	16.0	73	11.2	11	19	292	0.0	1014.8	114	0.000	1.2
20110730 15:00	15.9	15.9	15.9	73	11.1	13	21	270	0.0	1014.8	117	0.127	1.2
20110730 15:05	16.0	16.0	16.0	73	11.2	10	19	270	0.0	1014.8	141	0.000	1.4
20110730 15:10	16.2	16.2	16.2	74	11.5	8	11	270	0.0	1014.7	349	0.000	3.4
20110730 15:15	16.4	16.4	16.4	73	11.6	13	21	270	0.0	1014.6	355	0.000	3.5
20110730 15:20	16.7	16.7	16.7	70	11.2	11	21	292	0.0	1014.6	350	0.000	3.4
20110730 15:25	16.9	16.9	16.9	71	11.6	10	18	270	0.0	1014.5	422	0.000	3.9
20110730 15:30	17.1	17.1	17.1	68	11.2	13	21	270	0.0	1014.5	355	0.000	3.2
20110730 15:35	17.1	17.1	17.1	68	11.2	13	24	270	0.0	1014.5	192	0.000	1.8
20110730 15:40	16.9	16.9	16.9	68	11.0	11	19	270	0.0	1014.5	166	0.000	1.5
20110730 15:45	16.8	16.8	16.8	69	11.1	11	19	270	0.0	1014.5	154	0.000	1.3
20110730 15:50	16.8	16.8	16.8	67	10.6	16	24	292	0.0	1014.5	210	0.000	1.8
20110730 15:55	16.9	16.9	16.9	65	10.3	16	27	292	0.0	1014.6	272	0.000	2.3
20110730 16:00	17.1	17.1	17.1	66	10.7	13	24	270	0.0	1014.5	365	0.203	3.0
20110730 16:05	17.2	17.2	17.2	65	10.6	16	26	270	0.0	1014.5	319	0.000	2.7
20110730 16:10	17.4	17.4	17.4	66	11.0	11	21	270	0.0	1014.4	305	0.000	2.6
20110730 16:15	17.6	17.6	17.6	64	10.7	13	24	292	0.0	1014.4	327	0.000	2.6
20110730 16:20	17.6	17.6	17.6	62	10.2	18	27	270	0.0	1014.4	352	0.000	2.7
20110730 16:25	17.7	17.7	17.7	62	10.3	18	31	270	0.0	1014.4	318	0.000	2.5
20110730 16:30	17.7	17.7	17.7	63	10.5	16	29	292	0.0	1014.4	290	0.000	2.3
20110730 16:35	17.6	17.6	17.6	62	10.2	14	26	292	0.0	1014.5	232	0.000	1.8
20110730 16:40	17.6	17.6	17.6	62	10.2	11	23	292	0.0	1014.4	163	0.000	1.2
20110730 16:45	17.5	17.5	17.5	62	10.1	13	23	292	0.0	1014.4	122	0.000	0.9
20110730 16:50	17.4	17.4	17.4	62	10.0	11	23	292	0.0	1014.4	162	0.000	1.3
20110730 16:55	17.3	17.3	17.3	62	10.0	13	23	270	0.0	1014.4	210	0.000	1.5
20110730 17:00	17.4	17.4	17.4	62	10.0	13	21	292	0.0	1014.4	213	0.203	1.5
20110730 17:05	17.4	17.4	17.4	62	10.0	13	23	270	0.0	1014.4	183	0.000	1.3
20110730 17:10	17.4	17.4	17.4	63	10.3	13	21	292	0.0	1014.4	153	0.000	1.2
20110730 17:15	17.3	17.3	17.3	63	10.2	10	21	315	0.0	1014.5	130	0.000	1.0
20110730 17:20	17.1	17.1	17.1	63	10.0	11	21	315	0.0	1014.5	114	0.000	0.8
20110730 17:25	17.0	17.0	17.0	63	9.9	11	21	315	0.0	1014.4	140	0.000	1.0
20110730 17:30	16.9	16.9	16.9	64	10.1	8	16	292	0.0	1014.4	207	0.000	1.3
20110730 17:35	17.1	17.1	17.1	64	10.2	10	19	292	0.0	1014.4	229	0.000	1.4
20110730 17:40	17.2	17.2	17.2	63	10.1	11	21	292	0.0	1014.3	239	0.000	1.4
20110730 17:45	17.3	17.3	17.3	64	10.4	8	21	292	0.0	1014.4	221	0.000	1.3
20110730 17:50	17.4	17.4	17.4	62	10.0	11	21	292	0.0	1014.3	226	0.000	1.3
20110730 17:55	17.4	17.4	17.4	62	10.1	13	21	270	0.0	1014.2	230	0.000	1.2
20110730 18:00	17.4	17.4	17.4	61	9.8	13	29	270	0.0	1014.2	226	0.152	1.1
20110730 18:05	17.4	17.4	17.4	60	9.6	14	26	292	0.0	1014.2	218	0.000	1.1
20110730 18:10	17.4	17.4	17.4	60	9.6	16	23	270	0.0	1014.2	271	0.000	1.2
20110730 18:15	17.6	17.6	17.6	61	10.0	13	23	270	0.0	1014.2	279	0.000	1.1
20110730 18:20	17.7	17.7	17.7	60	9.9	10	21	270	0.0	1014.2	214	0.000	1.0
20110730 18:25	17.7	17.7	17.7	60	9.8	14	23	292	0.0	1014.2	217	0.000	0.9
20110730 18:30	17.6	17.6	17.6	62	10.2	10	19	315	0.0	1014.2	216	0.000	0.9
20110730 18:35	17.4	17.4	17.4	63	10.3	10	23	315	0.0	1014.3	187	0.000	0.8
20110730 18:40	17.3	17.3	17.3	64	10.4	5	18	315	0.0	1014.3	176	0.000	0.7
20110730 18:45	17.2	17.2	17.2	63	10.1	5	16	315	0.0	1014.3	220	0.000	0.7
20110730 18:50	17.2	17.2	17.2	64	10.3	6	18	315	0.0	1014.3	186	0.000	0.6
20110730 18:55	17.2	17.2	17.2	63	10.1	6	14	292	0.0	1014.3	141	0.000	0.5
20110730 19:00	17.1	17.1	17.1	64	10.2	6	14	315	0.0	1014.3	117	0.152	0.1
20110730 19:05	16.9	16.9	16.9	64	10.1	6	21	315	0.0	1014.4	95	0.000	0.0
20110730 19:10	16.8	16.8	16.8	65	10.2	6	14	292	0.0	1014.4	81	0.000	0.0
20110730 19:15	16.8	16.8	16.8	66	10.4	8	16	315	0.0	1014.4	74	0.000	0.0
20110730 19:20	16.7	16.7	16.7	67	10.5	5	11	292	0.0	1014.4	68	0.000	0.0
20110730 19:25	16.6	16.6	16.6	67	10.4	5	16	292	0.0	1014.3	60	0.000	0.0
20110730 19:30	16.4	16.4	16.4	68	10.5	2	6	292	0.0	1014.4	52	0.000	0.0
20110730 19:35	16.3	16.3	16.3	68	10.4	3	8	315	0.0	1014.5	44	0.000	0.0
20110730 19:40	16.2	16.2	16.2	68	10.3	5	10	315	0.0	1014.5	40	0.000	0.0
20110730 19:45	16.1	16.1	16.1	69	10.4	5	10	292	0.0	1014.6	37	0.000	0.0
20110730 19:50	16.1	16.1	16.1	70	10.6	6	11	315	0.0	1014.6	31	0.000	0.0
20110730 19:55	15.9	15.9	15.9	70	10.5	5	16	315	0.0	1014.6	26	0.000	0.0
20110730 20:00	15.8	15.8	15.8	70	10.4	8	16	315	0.0	1014.6	23	0.051	0.0
20110730 20:05	15.8	15.8	15.8	70	10.4	6	10	315	0.0	1014.6	20	0.000	0.0
20110730 20:10	15.7	15.7	15.7	71	10.5	5	10	315	0.0	1014.6	18	0.000	0.0
20110730 20:15	15.7	15.7	15.7	72	10.6	5	11	315	0.0	1014.6	16	0.000	0.0
20110730 20:20	15.6	15.6	15.6	71	10.4	5	11	315	0.0	1014.6	14	0.000	0.0
20110730 20:25	15.6	15.6	15.6	71	10.3	6	14	315	0.0	1014.6	12	0.000	0.0
20110730 20:30	15.5	15.5	15.5	71	10.3	5	10	315	0.0	1014.7	9	0.000	0.0
20110730 20:35	15.4	15.4	15.4	72	10.4	5	10	315	0.0	1014.7	6	0.000	0.0
20110730 20:40	15.3	15.3	15.3	72	10.3	6	11	315	0.0	1014.8	1	0.000	0.0
20110730 20:45	15.2	15.2	15.2	73	10.4	5	11	315	0.0	1014.9	0	0.000	0.0
20110730 20:50	15.0	15.0	15.0	74	10.4	8	16	22	0.0	1015.1	0	0.000	0.0
20110730 20:55	14.8	14.8	14.8	77	10.8	6	16	22	0.0	1015.1	0	0.000	0.0
20110730 21:00	14.4	14.4	14.4	79	10.8	5	10	22	0.0	1015.2	0	0.025	0.0
20110730 21:05	14.3	14.3	14.3	80	10.9	2	6	22	0.0	1015.2	0	0.000	0.0
20110730 21:10	14.2	14.2	14.2	81	11.0	0	6	22	0.0	1015.3	0	0.000	0.0
20110730 21:15	14.1	14.1	14.1	82	11.0	0	5	22	0.0	1015.4	0	0.000	0.0
20110730 21:20	13.9	13.9	13.9	83	11.1	0	2	22	0.0	1015.5	0	0.000	0.0
20110730 21:25	13.9	13.9	13.9	83	11.0	0	5	22	0.0	1015.5	0	0.000	0.0
20110730 21:30	13.8	13.8	13.8	84	11.2	0	5	22	0.0	1015.6	0	0.000	0.0
20110730 21:35	13.7	13.7	13.7	84	11.1	0	2	22	0.0	1015.6	0	0.000	0.0
20110730 21:40	13.7	13.7	13.7	84	11.0	0	6	22	0.0	1015.6	0	0.000	0.0
20110730 21:45	13.6	13.6	13.6	84	11.0	2	8	22	0.0	1015.7	0	0.000	0.0
20110730 21:50	13.6	13.6	13.6	85	11.1	0	5	22	0.0	1015.7	0	0.000	0.0
20110730 21:55	13.5	13.5	13.5	85	11.0	0	6	22	0.0	1015.7	0	0.000	0.0
20110730 22:00	13.4	13.4	13.4	85	11.0	0	2	22	0.0	1015.8	0	0.025	0.0
20110730 22:05	13.4	13.4	13.4	85	11.0	0	3	22	0.0	1015.5	0	0.000	0.0
20110730 22:10	13.3	13.3	13.3	85	10.9	2	6	22	0.0	1015.5	0	0.000	0.0
20110730 22:15	13.3	13.3	13.3	85	10.9	2	8	292	0.0	1015.4	0	0.000	0.0
20110730 22:20	13.3	13.3	13.3	85	10.8	2	6	292	0.0	1015.4	0	0.000	0.0
20110730 22:25	13.2	13.2	13.2	85	10.8	3	10	315	0.0	1015.5	0	0.000	0.0
20110730 22:30	13.2	13.2	13.2	85	10.8	2	8	315	0.0	1015.5	0	0.000	0.0
20110730 22:35	13.2	13.2	13.2	85	10.7	2	5	315	0.0	1015.5	0	0.000	0.0
20110730 22:40	13.2	13.2	13.2	86	10.9	2	6	315	0.0	1015.5	0	0.000	0.0
20110730 22:45	13.2	13.2	13.2	86	10.9	3	8	315	0.0	1015.6	0	0.000	0.0
20110730 22:50	13.1	13.1	13.1	86	10.8	3	10	315	0.0	1015.7	0	0.000	0.0
20110730 22:55	13.1	13.1	13.1	86	10.8	5	11	292	0.0	1015.7	0	0.000	0.0
20110730 23:00	13.1	13.1	13.1	86	10.8	6	13	315	0.0	1015.6	0	0.025	0.0
20110730 23:05	13.1	13.1	13.1	86	10.8	6	18	315	0.0	1015.5	0	0.000	0.0
20110730 23:10	13.1	13.1	13.1	86	10.8	5	14	292	0.0	1015.5	0	0.000	0.0
20110730 23:15	13.1	13.1	13.1	86	10.8	6	14	315	0.0	1015.5	0	0.000	0.0
20110730 23:20	13.1	13.1	13.1	86	10.8	5	8	315	0.0	1015.4	0	0.000	0.0
20110730 23:25	13.1	13.1	13.1	86	10.8	6	14	292	0.0	1015.4	0	0.000	0.0
20110730 23:30	13.1	13.1	13.1	86	10.8	6	10	292	0.0	1015.4	0	0.000	0.0
20110730 23:35	13.1	13.1	13.1	85	10.6	6	11	292	0.0	1015.5	0	0.000	0.0
20110730 23:40	13.1	13.1	13.1	85	10.6	8	11	292	0.0	1015.5	0	0.000	0.0
20110730 23:45	13.2	13.2	13.2	85	10.7	5	10	315	0.0	1015.6	0	0.000	0.0
20110730 23:50	13.2	13.2	13.2	85	10.7	5	8	292	0.0	1015.6	0	0.000	0.0
20110730 23:55	13.2	13.2	13.2	85	10.7	3	8	292	0.0	1015.6	0	0.000	0.0



Please note the license to use and transfer of this data:
http://creativecommons.org/licenses/by-nc-sa/3.0/deed.en

Bitte beachten sie die Lizenz zur Verwertung und Weitergabe der Daten:
http://creativecommons.org/licenses/by-nc-sa/3.0/deed.de

zurück zur Übersicht der Archivdaten (Monats und Tagesdaten)

Cookies helfen bei der Bereitstellung von Inhalten. Durch die Nutzung dieser Seiten erklärst du dich damit einverstanden, dass Cookies auf deinem Rechner gespeichert werden. Weitere Information